Orbital Elements at Epoch 2459200.5 (2020-Dec-17.0) TDB
Reference: JPL 36 (heliocentric ecliptic J2000)
Element | Value | Uncertainty (1-sigma) | Units |
e | .03605698590764505 | 2.1334e-08 | |
a | 2.978844900184081 | 1.4842e-08 | au |
q | 2.871436731597083 | 6.5997e-08 | au |
i | 8.192499297648299 | 4.0753e-07 | deg |
node | 280.3339538451179 | 1.3029e-06 | deg |
peri | 173.7433489005486 | 2.8109e-05 | deg |
M | 338.1353709650276 | 2.5209e-05 | deg |
tp | 2459314.553830707688 (2021-Apr-10.05383071) | 0.00013133 | TDB |
period | 1877.890495607914 5.14 | 1.4035e-05 3.843e-08 | d yr |
n | .1917044688398937 | 1.4327e-09 | deg/d |
Q | 3.086253068771078 | 1.5377e-08 | au |
|
| | Orbit Determination Parameters
Additional Information
|